Change the Weather History Date:

Tuesday, November 12, 2013

  Actual Average (KEFC) Record (KEFC)
Temperature  
Mean Temperature 34 °F -  
Max Temperature 55 °F 49 °F 74 °F (1981)
Min Temperature 14 °F 20 °F -5 °F (1986)
Degree Days  
Heating Degree Days 30    
Moisture  
Dew Point 21 °F    
Average Humidity 57    
Maximum Humidity 93    
Minimum Humidity 21    
Precipitation  
Precipitation 0.00 in - - ()
Sea Level Pressure  
Sea Level Pressure 30.38 in    
Wind  
Wind Speed 4 mph (South)    
Max Wind Speed 10 mph    
Max Gust Speed -    
Visibility 10 miles    
Events      
Averages and records for this station are not official NWS values.
T = Trace of Precipitation, MM = Missing Value Source: NWS Daily Summary

Daily Weather History Graph

Daily Weather History Graph

Search for Another Location

Airport or City:

Trip Planner

Search our weather history database for the weather conditions in past years. The results will help you decide how hot, cold, wet, or windy it might be!

Date:

Astronomy

Nov. 12, 2013 Rise Set
Actual Time 7:47 AM CST 5:30 PM CST
Civil Twilight 7:16 AM CST 6:01 PM CST
Nautical Twilight 6:41 AM CST 6:36 PM CST
Astronomical Twilight 6:07 AM CST 7:10 PM CST
Moon 2:56 PM CST (11/12) 2:28 AM CST (11/12)
Length of Visible Light 10h 45m
Length of Day
9h 42m
Waxing Gibbous, 76% of the Moon is Illuminated
Nov 12
Waxing Gibbous
Nov 17
Full
Nov 25
Last Quarter
Dec 2
New
Dec 9
First Quarter

Hourly Weather History & Observations

Time (CST) Temp. Windchill Dew Point Humidity Pressure Visibility Wind Dir Wind Speed Gust Speed Precip Events Conditions
12:35 AM 15.8 °F - 14.0 °F 93% 30.55 in 10.0 mi Calm Calm - N/A   Clear
12:55 AM 17.6 °F 10.7 °F 14.0 °F 86% 30.54 in 10.0 mi South 4.6 mph - N/A   Clear
1:15 AM 14.0 °F 8.2 °F 12.2 °F 93% 30.54 in 10.0 mi SSE 3.5 mph - N/A   Clear
1:35 AM 17.6 °F 10.7 °F 14.0 °F 86% 30.54 in 10.0 mi SW 4.6 mph - N/A   Clear
1:55 AM 19.4 °F 10.4 °F 15.8 °F 86% 30.53 in 10.0 mi SSW 6.9 mph - N/A   Clear
2:35 AM 17.6 °F - 15.8 °F 93% 30.53 in 10.0 mi Calm Calm - N/A   Clear
2:55 AM 17.6 °F 10.7 °F 14.0 °F 86% 30.52 in 10.0 mi South 4.6 mph - N/A   Clear
3:15 AM 19.4 °F 11.5 °F 15.8 °F 86% 30.52 in 10.0 mi South 5.8 mph - N/A   Clear
3:35 AM 17.6 °F 9.3 °F 14.0 °F 86% 30.52 in 10.0 mi South 5.8 mph - N/A   Clear
3:55 AM 17.6 °F 10.7 °F 14.0 °F 86% 30.53 in 10.0 mi SSW 4.6 mph - N/A   Clear
4:15 AM 17.6 °F 8.2 °F 14.0 °F 86% 30.52 in 10.0 mi SW 6.9 mph - N/A   Clear
4:35 AM 17.6 °F 9.3 °F 14.0 °F 86% 30.52 in 10.0 mi SSW 5.8 mph - N/A   Clear
4:55 AM 19.4 °F 11.5 °F 14.0 °F 80% 30.52 in 10.0 mi South 5.8 mph - N/A   Clear
5:15 AM 17.6 °F 6.4 °F 14.0 °F 86% 30.51 in 10.0 mi SSW 9.2 mph - N/A   Clear
5:35 AM 17.6 °F 12.3 °F 14.0 °F 86% 30.51 in 10.0 mi SW 3.5 mph - N/A   Clear
5:55 AM 19.4 °F 10.4 °F 14.0 °F 80% 30.51 in 10.0 mi South 6.9 mph - N/A   Clear
6:15 AM 17.6 °F 8.2 °F 14.0 °F 86% 30.51 in 10.0 mi SSW 6.9 mph - N/A   Clear
6:35 AM 17.6 °F 10.7 °F 14.0 °F 86% 30.50 in 10.0 mi SSW 4.6 mph - N/A   Clear
6:55 AM 17.6 °F 9.3 °F 14.0 °F 86% 30.50 in 10.0 mi South 5.8 mph - N/A   Clear
7:15 AM 19.4 °F 11.5 °F 14.0 °F 80% 30.50 in 10.0 mi South 5.8 mph - N/A   Clear
7:35 AM 21.2 °F 13.6 °F 15.8 °F 80% 30.50 in 10.0 mi South 5.8 mph - N/A   Clear
7:55 AM 23.0 °F 18.4 °F 17.6 °F 80% 30.49 in 10.0 mi South 3.5 mph - N/A   Clear
8:15 AM 26.6 °F - 19.4 °F 74% 30.48 in 10.0 mi Calm Calm - N/A   Clear
8:35 AM 26.6 °F 22.6 °F 19.4 °F 74% 30.48 in 10.0 mi SSE 3.5 mph - N/A   Clear
8:55 AM 28.4 °F 24.6 °F 23.0 °F 80% 30.47 in 10.0 mi South 3.5 mph - N/A   Clear
9:15 AM 32.0 °F 26.4 °F 19.4 °F 60% 30.46 in 10.0 mi SE 5.8 mph - N/A   Clear
9:35 AM 33.8 °F 29.6 °F 24.8 °F 70% 30.45 in 10.0 mi South 4.6 mph - N/A   Clear
9:55 AM 35.6 °F 32.8 °F 28.4 °F 75% 30.45 in 10.0 mi West 3.5 mph - N/A   Clear
10:15 AM 39.2 °F - 26.6 °F 61% 30.45 in 10.0 mi Calm Calm - N/A   Clear
10:35 AM 41.0 °F 35.8 °F 26.6 °F 57% 30.45 in 10.0 mi West 8.1 mph - N/A   Clear
10:55 AM 41.0 °F 35.8 °F 26.6 °F 57% 30.45 in 10.0 mi West 8.1 mph - N/A   Clear
11:15 AM 44.6 °F 43.1 °F 24.8 °F 46% 30.44 in 10.0 mi SSW 3.5 mph - N/A   Clear
11:35 AM 46.4 °F 45.2 °F 24.8 °F 43% 30.43 in 10.0 mi WSW 3.5 mph - N/A   Clear
11:55 AM 48.2 °F - 23.0 °F 37% 30.41 in 10.0 mi ESE 5.8 mph - N/A   Clear
12:15 PM 50.0 °F - 17.6 °F 28% 30.40 in 10.0 mi ESE 5.8 mph - N/A   Clear
12:35 PM 51.8 °F - 23.0 °F 33% 30.38 in 10.0 mi ESE 6.9 mph - N/A   Clear
12:55 PM 53.6 °F - 19.4 °F 26% 30.37 in 10.0 mi East 4.6 mph - N/A   Clear
1:15 PM 55.4 °F - 15.8 °F 21% 30.36 in 10.0 mi ENE 3.5 mph - N/A   Clear
1:35 PM 55.4 °F - 17.6 °F 23% 30.35 in 10.0 mi NE 4.6 mph - N/A   Clear
1:55 PM 55.4 °F - 21.2 °F 26% 30.34 in 10.0 mi NE 5.8 mph - N/A   Clear
2:15 PM 55.4 °F - 19.4 °F 25% 30.33 in 10.0 mi NE 6.9 mph - N/A   Clear
2:35 PM 55.4 °F - 23.0 °F 29% 30.33 in 10.0 mi NE 5.8 mph - N/A   Clear
2:55 PM 53.6 °F - 26.6 °F 35% 30.32 in 10.0 mi NE 5.8 mph - N/A   Clear
3:15 PM 53.6 °F - 26.6 °F 35% 30.31 in 10.0 mi NE 4.6 mph - N/A   Clear
3:35 PM 53.6 °F - 26.6 °F 35% 30.31 in 10.0 mi NE 3.5 mph - N/A   Clear
3:55 PM 51.8 °F - 28.4 °F 41% 30.31 in 10.0 mi Calm Calm - N/A   Clear
4:15 PM 51.8 °F - 26.6 °F 38% 30.30 in 10.0 mi SW 4.6 mph - N/A   Clear
4:35 PM 46.4 °F - 24.8 °F 43% 30.29 in 10.0 mi Calm Calm - N/A   Clear
4:55 PM 44.6 °F 41.4 °F 26.6 °F 49% 30.29 in 10.0 mi SE 5.8 mph - N/A   Clear
5:15 PM 42.8 °F 39.3 °F 24.8 °F 49% 30.27 in 10.0 mi ESE 5.8 mph - N/A   Clear
5:35 PM 44.6 °F - 23.0 °F 43% 30.26 in 10.0 mi Calm Calm - N/A   Clear
5:55 PM 41.0 °F 36.4 °F 24.8 °F 53% 30.25 in 10.0 mi ESE 6.9 mph - N/A   Clear
6:15 PM 41.0 °F 37.1 °F 24.8 °F 53% 30.25 in 10.0 mi SE 5.8 mph - N/A   Clear
6:35 PM 44.6 °F 42.2 °F 24.8 °F 46% 30.24 in 10.0 mi SE 4.6 mph - N/A   Clear
6:55 PM 46.4 °F 44.3 °F 24.8 °F 43% 30.23 in 10.0 mi NE 4.6 mph - N/A   Clear
7:15 PM 50.0 °F - 24.8 °F 37% 30.22 in 10.0 mi NNE 4.6 mph - N/A   Clear
7:35 PM 46.4 °F 41.5 °F 24.8 °F 43% 30.22 in 10.0 mi North 10.4 mph - N/A   Clear
7:55 PM 53.6 °F - 24.8 °F 33% 30.22 in 10.0 mi WSW 4.6 mph - N/A   Clear
8:15 PM 50.0 °F - 24.8 °F 37% 30.22 in 10.0 mi Calm Calm - N/A   Clear
8:35 PM 51.8 °F - 24.8 °F 35% 30.21 in 10.0 mi Calm Calm - N/A   Clear
8:55 PM 48.2 °F - 24.8 °F 40% 30.21 in 10.0 mi ENE 4.6 mph - N/A   Clear
9:15 PM 50.0 °F - 24.8 °F 37% 30.20 in 10.0 mi WNW 6.9 mph - N/A   Clear
9:35 PM 51.8 °F - 24.8 °F 35% 30.20 in 10.0 mi WNW 6.9 mph - N/A   Clear
9:55 PM 50.0 °F - 24.8 °F 37% 30.20 in 10.0 mi West 6.9 mph - N/A   Clear
10:15 PM 50.0 °F - 24.8 °F 37% 30.19 in 10.0 mi WSW 6.9 mph - N/A   Clear
10:35 PM 48.2 °F - 24.8 °F 40% 30.19 in 10.0 mi West 6.9 mph - N/A   Clear
10:55 PM 48.2 °F - 23.0 °F 37% 30.18 in 10.0 mi West 5.8 mph - N/A   Clear
11:15 PM 46.4 °F 42.4 °F 24.8 °F 43% 30.18 in 10.0 mi West 8.1 mph - N/A   Clear
11:35 PM 46.4 °F 41.5 °F 24.8 °F 43% 30.18 in 10.0 mi West 10.4 mph - N/A   Clear
11:55 PM 46.4 °F 43.5 °F 23.0 °F 40% 30.18 in 10.0 mi West 5.8 mph - N/A   Clear